TimeEET,TemperatureF,Dew PointF,Humidity,Sea Level PressureIn,VisibilityMPH,Wind Direction,Wind SpeedMPH,Gust SpeedMPH,PrecipitationIn,Events,Conditions,WindDirDegrees,DateUTC
12:00 AM,87.8,44.6,22,29.74,-9999.0,NNW,8.1,-,N/A,,Clear,340,2013-07-01 22:00:00
1:00 AM,86.0,44.6,23,29.74,-9999.0,NNW,10.4,-,N/A,,Clear,340,2013-07-01 23:00:00
2:00 AM,85,44,15,29.71,6,SW,8.1,,,,,230,2013-07-02 00:00:00
2:00 AM,86.0,44.6,23,29.74,-9999.0,NW,8.1,-,N/A,,Clear,320,2013-07-02 00:00:00
3:00 AM,84.2,44.6,25,29.71,-9999.0,NNW,9.2,-,N/A,,Clear,330,2013-07-02 01:00:00
4:00 AM,82.4,44.6,26,29.74,-9999.0,NW,9.2,-,N/A,,Clear,320,2013-07-02 02:00:00
5:00 AM,80.6,44.6,28,29.74,-9999.0,NNW,6.9,-,N/A,,Clear,330,2013-07-02 03:00:00
6:00 AM,80.6,46.4,30,29.77,-9999.0,NW,8.1,-,N/A,,Clear,320,2013-07-02 04:00:00
7:00 AM,84.2,50.0,30,29.77,-9999.0,NW,10.4,-,N/A,,Clear,320,2013-07-02 05:00:00
8:00 AM,87,50,18,29.74,6,NNW,9.2,,,,,340,2013-07-02 06:00:00
8:00 AM,86.0,50.0,29,29.77,-9999.0,NNW,9.2,-,N/A,,Clear,340,2013-07-02 06:00:00
9:00 AM,86.0,50.0,29,29.77,-9999.0,NNW,9.2,-,N/A,,Clear,340,2013-07-02 07:00:00
11:00 AM,96.8,48.2,19,29.74,-9999.0,NNW,8.1,-,N/A,,Clear,330,2013-07-02 09:00:00
12:00 PM,98.6,46.4,17,29.71,-9999.0,North,5.8,-,N/A,,Clear,350,2013-07-02 10:00:00
1:00 PM,102.2,42.8,13,29.71,-9999.0,WNW,4.6,-,N/A,,Clear,290,2013-07-02 11:00:00
2:00 PM,103,40,6,29.63,6,West,9.2,,,,,260,2013-07-02 12:00:00
2:00 PM,102.2,41.0,12,29.68,-9999.0,West,9.2,-,N/A,,Clear,260,2013-07-02 12:00:00
3:00 PM,104.0,39.2,11,29.65,-9999.0,WNW,5.8,-,N/A,,Clear,300,2013-07-02 13:00:00
4:00 PM,104.0,39.2,11,29.65,-9999.0,NW,9.2,-,N/A,,Clear,310,2013-07-02 14:00:00
5:00 PM,104.0,39.2,11,29.65,-9999.0,NNW,4.6,-,N/A,,Clear,330,2013-07-02 15:00:00
6:00 PM,102.2,35.6,10,29.65,-9999.0,WNW,13.8,-,N/A,,Clear,290,2013-07-02 16:00:00
7:00 PM,98.6,33.8,10,29.68,-9999.0,NW,13.8,-,N/A,,Clear,310,2013-07-02 17:00:00
8:00 PM,96,37,6,29.66,6,NW,11.5,,,,,320,2013-07-02 18:00:00
8:00 PM,96.8,37.4,13,29.71,-9999.0,NW,11.5,-,N/A,,Clear,320,2013-07-02 18:00:00
9:00 PM,93.2,39.2,15,29.71,-9999.0,NNW,8.1,-,N/A,,Clear,330,2013-07-02 19:00:00
10:00 PM,91.4,44.6,20,29.71,-9999.0,NW,12.7,-,N/A,,Clear,310,2013-07-02 20:00:00
11:00 PM,87.8,42.8,21,29.71,-9999.0,NW,13.8,-,N/A,,Clear,310,2013-07-02 21:00:00